Time,TemperatureF,DewpointF,PressureIn,WindDirection,WindDirectionDegrees,WindSpeedMPH,WindSpeedGustMPH,Humidity,HourlyPrecipIn,Conditions,Clouds,dailyrainin,SolarRadiationWatts/m^2,SoftwareType,DateUTC
2013-09-10 00:00:00,70.9,61.0,30.26,NW,318,0.0,-999.0,71,0.00,,,0.00,0,WeatherHawk,2013-09-10 04:00:00,
2013-09-10 00:04:00,70.8,60.9,30.26,NW,325,0.0,-999.0,71,0.00,,,0.00,1,WeatherHawk,2013-09-10 04:04:00,
2013-09-10 00:09:00,70.8,61.0,30.26,SW,217,0.0,-999.0,71,0.00,,,0.00,0,WeatherHawk,2013-09-10 04:09:00,
2013-09-10 00:14:00,70.9,61.0,30.27,SW,218,0.0,-999.0,71,0.00,,,0.00,1,WeatherHawk,2013-09-10 04:14:00,
2013-09-10 00:19:00,70.7,60.8,30.27,SW,218,0.0,-999.0,71,0.00,,,0.00,0,WeatherHawk,2013-09-10 04:19:00,
2013-09-10 00:25:00,70.5,60.6,30.27,SW,218,0.0,-999.0,71,0.00,,,0.00,0,WeatherHawk,2013-09-10 04:25:00,
2013-09-10 00:34:00,70.8,61.3,30.27,SSW,205,0.0,-999.0,72,0.00,,,0.00,0,WeatherHawk,2013-09-10 04:34:00,
2013-09-10 00:39:00,70.5,61.0,30.26,NNW,328,0.0,-999.0,72,0.00,,,0.00,0,WeatherHawk,2013-09-10 04:39:00,
2013-09-10 00:44:00,70.6,61.1,30.27,NNE,32,0.0,-999.0,72,0.00,,,0.00,0,WeatherHawk,2013-09-10 04:44:00,
2013-09-10 00:49:00,70.5,60.6,30.27,NNE,30,0.0,-999.0,71,0.00,,,0.00,0,WeatherHawk,2013-09-10 04:49:00,
2013-09-10 00:54:00,70.5,61.0,30.27,East,90,0.0,-999.0,72,0.00,,,0.00,0,WeatherHawk,2013-09-10 04:54:00,
2013-09-10 00:59:00,71.7,62.2,30.27,NNE,18,0.0,-999.0,72,0.00,,,0.00,1,WeatherHawk,2013-09-10 04:59:00,
2013-09-10 01:04:00,70.8,60.9,30.26,North,351,0.0,-999.0,71,0.00,,,0.00,1,WeatherHawk,2013-09-10 05:04:00,
2013-09-10 01:09:00,70.4,60.5,30.27,North,351,0.0,-999.0,71,0.00,,,0.00,0,WeatherHawk,2013-09-10 05:09:00,
2013-09-10 01:14:00,70.7,61.3,30.26,North,350,0.0,-999.0,72,0.00,,,0.00,0,WeatherHawk,2013-09-10 05:14:00,
2013-09-10 01:19:00,70.3,60.8,30.27,NE,40,0.0,-999.0,72,0.00,,,0.00,0,WeatherHawk,2013-09-10 05:19:00,
2013-09-10 01:24:00,70.4,61.0,30.27,NE,38,0.0,-999.0,72,0.00,,,0.00,0,WeatherHawk,2013-09-10 05:24:00,
2013-09-10 01:29:00,70.5,61.4,30.26,NNE,17,0.0,-999.0,73,0.00,,,0.00,0,WeatherHawk,2013-09-10 05:29:00,
2013-09-10 01:34:00,70.3,61.2,30.27,North,0,0.0,-999.0,73,0.00,,,0.00,1,WeatherHawk,2013-09-10 05:34:00,
2013-09-10 01:39:00,70.9,61.8,30.27,NW,318,0.0,-999.0,73,0.00,,,0.00,0,WeatherHawk,2013-09-10 05:39:00,
2013-09-10 01:44:00,70.2,61.1,30.28,NW,316,0.0,-999.0,73,0.00,,,0.00,1,WeatherHawk,2013-09-10 05:44:00,
2013-09-10 01:49:00,70.3,61.2,30.27,West,264,0.0,-999.0,73,0.00,,,0.00,0,WeatherHawk,2013-09-10 05:49:00,
2013-09-10 01:54:00,70.3,61.6,30.28,SE,140,0.0,-999.0,74,0.00,,,0.00,2,WeatherHawk,2013-09-10 05:54:00,
2013-09-10 01:59:00,70.1,61.4,30.28,SE,140,0.0,-999.0,74,0.00,,,0.00,0,WeatherHawk,2013-09-10 05:59:00,
2013-09-10 02:04:00,69.9,61.2,30.28,SE,140,0.0,-999.0,74,0.00,,,0.00,0,WeatherHawk,2013-09-10 06:04:00,
2013-09-10 02:09:00,70.1,61.4,30.28,ESE,108,0.0,-999.0,74,0.00,,,0.00,0,WeatherHawk,2013-09-10 06:09:00,
2013-09-10 02:14:00,70.1,61.8,30.29,ESE,108,0.0,-999.0,75,0.00,,,0.00,0,WeatherHawk,2013-09-10 06:14:00,
2013-09-10 02:19:00,70.1,61.8,30.28,ESE,108,0.0,-999.0,75,0.00,,,0.00,0,WeatherHawk,2013-09-10 06:19:00,
2013-09-10 02:24:00,70.7,62.7,30.29,SE,144,0.0,-999.0,76,0.00,,,0.00,0,WeatherHawk,2013-09-10 06:24:00,
2013-09-10 02:29:00,70.0,61.7,30.28,NNE,17,0.0,-999.0,75,0.00,,,0.00,0,WeatherHawk,2013-09-10 06:29:00,
2013-09-10 02:34:00,70.2,61.9,30.29,North,351,0.0,-999.0,75,0.00,,,0.00,0,WeatherHawk,2013-09-10 06:34:00,
2013-09-10 02:39:00,70.7,62.3,30.28,North,0,0.0,-999.0,75,0.00,,,0.00,0,WeatherHawk,2013-09-10 06:39:00,
2013-09-10 02:44:00,72.1,63.4,30.28,North,4,0.0,-999.0,74,0.00,,,0.00,0,WeatherHawk,2013-09-10 06:44:00,
2013-09-10 02:49:00,71.9,60.7,30.28,SE,129,0.0,-999.0,68,0.00,,,0.00,0,WeatherHawk,2013-09-10 06:49:00,
2013-09-10 02:54:00,73.7,60.7,30.28,SE,133,0.0,-999.0,64,0.00,,,0.00,0,WeatherHawk,2013-09-10 06:54:00,
2013-09-10 02:59:00,73.2,58.5,30.28,SE,137,0.0,-999.0,60,0.00,,,0.00,0,WeatherHawk,2013-09-10 06:59:00,
2013-09-10 03:04:00,73.6,58.4,30.28,SE,136,2.0,-999.0,59,0.00,,,0.00,0,WeatherHawk,2013-09-10 07:04:00,
2013-09-10 03:09:00,73.2,57.1,30.29,South,180,1.0,-999.0,57,0.00,,,0.00,0,WeatherHawk,2013-09-10 07:09:00,
2013-09-10 03:14:00,73.3,57.1,30.28,SE,131,3.0,-999.0,57,0.00,,,0.00,0,WeatherHawk,2013-09-10 07:14:00,
2013-09-10 03:19:00,73.7,57.0,30.28,SE,125,2.0,-999.0,56,0.00,,,0.00,0,WeatherHawk,2013-09-10 07:19:00,
2013-09-10 03:24:00,73.5,56.3,30.28,SE,137,1.0,-999.0,55,0.00,,,0.00,0,WeatherHawk,2013-09-10 07:24:00,
2013-09-10 03:29:00,73.7,56.0,30.28,SE,138,3.0,-999.0,54,0.00,,,0.00,0,WeatherHawk,2013-09-10 07:29:00,
2013-09-10 03:34:00,73.3,55.1,30.28,SSE,158,0.0,-999.0,53,0.00,,,0.00,1,WeatherHawk,2013-09-10 07:34:00,
2013-09-10 03:39:00,73.6,55.4,30.28,SE,134,0.0,-999.0,53,0.00,,,0.00,1,WeatherHawk,2013-09-10 07:39:00,
2013-09-10 03:44:00,73.5,54.8,30.28,ESE,123,0.0,-999.0,52,0.00,,,0.00,0,WeatherHawk,2013-09-10 07:44:00,
2013-09-10 03:49:00,73.5,54.8,30.29,South,185,0.0,-999.0,52,0.00,,,0.00,0,WeatherHawk,2013-09-10 07:49:00,
2013-09-10 03:54:00,73.4,55.2,30.29,South,189,0.0,-999.0,53,0.00,,,0.00,0,WeatherHawk,2013-09-10 07:54:00,
2013-09-10 03:59:00,73.2,54.5,30.28,SSW,206,1.0,-999.0,52,0.00,,,0.00,1,WeatherHawk,2013-09-10 07:59:00,
2013-09-10 04:04:00,73.6,55.4,30.29,SSE,164,0.0,-999.0,53,0.00,,,0.00,0,WeatherHawk,2013-09-10 08:04:00,
2013-09-10 04:09:00,73.4,55.2,30.29,SSE,150,1.0,-999.0,53,0.00,,,0.00,0,WeatherHawk,2013-09-10 08:09:00,
2013-09-10 04:14:00,73.6,55.9,30.29,East,99,0.0,-999.0,54,0.00,,,0.00,1,WeatherHawk,2013-09-10 08:14:00,
2013-09-10 04:19:00,73.2,55.5,30.30,SSE,147,0.0,-999.0,54,0.00,,,0.00,0,WeatherHawk,2013-09-10 08:19:00,
2013-09-10 04:24:00,73.0,54.9,30.29,SSE,161,0.0,-999.0,53,0.00,,,0.00,0,WeatherHawk,2013-09-10 08:24:00,
2013-09-10 04:29:00,72.6,54.5,30.29,SSW,208,0.0,-999.0,53,0.00,,,0.00,0,WeatherHawk,2013-09-10 08:29:00,
2013-09-10 04:34:00,72.6,54.5,30.30,SE,146,0.0,-999.0,53,0.00,,,0.00,0,WeatherHawk,2013-09-10 08:34:00,
2013-09-10 04:39:00,71.8,55.7,30.30,South,170,0.0,-999.0,57,0.00,,,0.00,0,WeatherHawk,2013-09-10 08:39:00,
2013-09-10 04:44:00,73.7,57.9,30.30,SE,133,1.0,-999.0,58,0.00,,,0.00,0,WeatherHawk,2013-09-10 08:44:00,
2013-09-10 04:49:00,72.6,55.5,30.30,East,97,0.0,-999.0,55,0.00,,,0.00,1,WeatherHawk,2013-09-10 08:49:00,
2013-09-10 04:54:00,73.2,55.1,30.29,South,183,0.0,-999.0,53,0.00,,,0.00,0,WeatherHawk,2013-09-10 08:54:00,
2013-09-10 04:59:00,72.1,55.1,30.30,NNW,341,0.0,-999.0,55,0.00,,,0.00,1,WeatherHawk,2013-09-10 08:59:00,
2013-09-10 05:04:00,70.7,53.3,30.30,ENE,61,0.0,-999.0,54,0.00,,,0.00,0,WeatherHawk,2013-09-10 09:04:00,
2013-09-10 05:09:00,72.5,57.4,30.30,South,174,0.0,-999.0,59,0.00,,,0.00,0,WeatherHawk,2013-09-10 09:09:00,
2013-09-10 05:14:00,71.6,56.0,30.31,SSW,204,0.0,-999.0,58,0.00,,,0.00,1,WeatherHawk,2013-09-10 09:14:00,
2013-09-10 05:19:00,70.9,56.7,30.31,NNE,12,0.0,-999.0,61,0.00,,,0.00,1,WeatherHawk,2013-09-10 09:19:00,
2013-09-10 05:24:00,71.1,57.4,30.31,West,266,0.0,-999.0,62,0.00,,,0.00,0,WeatherHawk,2013-09-10 09:24:00,
2013-09-10 05:29:00,72.8,58.1,30.31,South,182,0.0,-999.0,60,0.00,,,0.00,1,WeatherHawk,2013-09-10 09:29:00,
2013-09-10 05:34:00,70.3,54.8,30.31,WSW,256,0.0,-999.0,58,0.00,,,0.00,0,WeatherHawk,2013-09-10 09:34:00,
2013-09-10 05:39:00,70.7,57.0,30.31,NNW,337,0.0,-999.0,62,0.00,,,0.00,0,WeatherHawk,2013-09-10 09:39:00,
2013-09-10 05:44:00,70.1,56.9,30.31,NE,34,0.0,-999.0,63,0.00,,,0.00,1,WeatherHawk,2013-09-10 09:44:00,
2013-09-10 05:49:00,72.6,58.4,30.32,SSE,152,0.0,-999.0,61,0.00,,,0.00,0,WeatherHawk,2013-09-10 09:49:00,
2013-09-10 05:54:00,72.9,57.7,30.32,SSW,192,0.0,-999.0,59,0.00,,,0.00,0,WeatherHawk,2013-09-10 09:54:00,
2013-09-10 05:59:00,72.3,56.6,30.32,NW,310,0.0,-999.0,58,0.00,,,0.00,0,WeatherHawk,2013-09-10 09:59:00,
2013-09-10 06:04:00,73.2,56.5,30.32,SE,142,0.0,-999.0,56,0.00,,,0.00,0,WeatherHawk,2013-09-10 10:04:00,
2013-09-10 06:09:00,72.1,55.5,30.33,South,177,0.0,-999.0,56,0.00,,,0.00,1,WeatherHawk,2013-09-10 10:09:00,
2013-09-10 06:14:00,71.3,53.8,30.33,NE,38,0.0,-999.0,54,0.00,,,0.00,0,WeatherHawk,2013-09-10 10:14:00,
2013-09-10 06:19:00,70.4,54.4,30.33,ESE,113,0.0,-999.0,57,0.00,,,0.00,0,WeatherHawk,2013-09-10 10:19:00,
2013-09-10 06:24:00,71.4,55.8,30.32,East,85,0.0,-999.0,58,0.00,,,0.00,0,WeatherHawk,2013-09-10 10:24:00,
2013-09-10 06:29:00,73.4,56.2,30.33,SSE,163,2.0,-999.0,55,0.00,,,0.00,0,WeatherHawk,2013-09-10 10:29:00,
2013-09-10 06:34:00,72.5,55.4,30.33,SE,140,0.0,-999.0,55,0.00,,,0.00,0,WeatherHawk,2013-09-10 10:34:00,
2013-09-10 06:39:00,72.6,55.0,30.34,SSE,162,0.0,-999.0,54,0.00,,,0.00,0,WeatherHawk,2013-09-10 10:39:00,
2013-09-10 06:44:00,72.2,53.6,30.34,SSW,212,0.0,-999.0,52,0.00,,,0.00,0,WeatherHawk,2013-09-10 10:44:00,
2013-09-10 06:49:00,72.5,54.4,30.34,SSE,149,0.0,-999.0,53,0.00,,,0.00,0,WeatherHawk,2013-09-10 10:49:00,
2013-09-10 06:54:00,72.3,53.7,30.35,ENE,61,0.0,-999.0,52,0.00,,,0.00,0,WeatherHawk,2013-09-10 10:54:00,
2013-09-10 06:59:00,72.8,53.6,30.34,South,170,0.0,-999.0,51,0.00,,,0.00,1,WeatherHawk,2013-09-10 10:59:00,
2013-09-10 07:04:00,72.8,53.6,30.35,SSE,163,2.0,-999.0,51,0.00,,,0.00,1,WeatherHawk,2013-09-10 11:04:00,
2013-09-10 07:09:00,72.0,52.3,30.34,SE,144,0.0,-999.0,50,0.00,,,0.00,2,WeatherHawk,2013-09-10 11:09:00,
2013-09-10 07:14:00,72.8,53.6,30.34,South,174,0.0,-999.0,51,0.00,,,0.00,4,WeatherHawk,2013-09-10 11:14:00,
2013-09-10 07:19:00,72.9,53.2,30.36,SSE,168,1.0,-999.0,50,0.00,,,0.00,6,WeatherHawk,2013-09-10 11:19:00,
2013-09-10 07:24:00,72.6,52.9,30.35,South,169,1.0,-999.0,50,0.00,,,0.00,9,WeatherHawk,2013-09-10 11:24:00,
2013-09-10 07:29:00,72.9,53.1,30.34,ESE,123,1.0,-999.0,50,0.00,,,0.00,15,WeatherHawk,2013-09-10 11:29:00,
2013-09-10 07:34:00,72.9,53.2,30.35,SSW,194,0.0,-999.0,50,0.00,,,0.00,19,WeatherHawk,2013-09-10 11:34:00,
2013-09-10 07:39:00,72.7,52.5,30.35,South,170,0.0,-999.0,49,0.00,,,0.00,27,WeatherHawk,2013-09-10 11:39:00,
2013-09-10 07:44:00,73.1,52.8,30.35,SSE,156,0.0,-999.0,49,0.00,,,0.00,33,WeatherHawk,2013-09-10 11:44:00,
2013-09-10 07:49:00,72.8,51.9,30.35,South,181,0.0,-999.0,48,0.00,,,0.00,43,WeatherHawk,2013-09-10 11:49:00,
2013-09-10 07:54:00,73.3,51.9,30.35,SSE,149,1.0,-999.0,47,0.00,,,0.00,41,WeatherHawk,2013-09-10 11:54:00,
2013-09-10 07:59:00,73.2,51.1,30.35,South,170,0.0,-999.0,46,0.00,,,0.00,36,WeatherHawk,2013-09-10 11:59:00,
2013-09-10 08:04:00,73.4,51.4,30.36,SSE,152,1.0,-999.0,46,0.00,,,0.00,34,WeatherHawk,2013-09-10 12:04:00,
2013-09-10 08:09:00,73.1,51.7,30.36,SSE,161,2.0,-999.0,47,0.00,,,0.00,47,WeatherHawk,2013-09-10 12:09:00,
2013-09-10 08:14:00,73.4,51.3,30.36,South,186,2.0,-999.0,46,0.00,,,0.00,53,WeatherHawk,2013-09-10 12:14:00,
2013-09-10 08:19:00,73.7,51.0,30.35,SSE,160,2.0,-999.0,45,0.00,,,0.00,63,WeatherHawk,2013-09-10 12:19:00,
2013-09-10 08:24:00,73.6,50.4,30.37,ESE,103,0.0,-999.0,44,0.00,,,0.00,77,WeatherHawk,2013-09-10 12:24:00,
2013-09-10 08:29:00,74.1,50.1,30.38,SSE,147,0.0,-999.0,43,0.00,,,0.00,89,WeatherHawk,2013-09-10 12:29:00,
2013-09-10 08:34:00,74.5,49.9,30.36,SSW,211,1.0,-999.0,42,0.00,,,0.00,103,WeatherHawk,2013-09-10 12:34:00,
2013-09-10 08:39:00,74.5,49.2,30.36,SE,139,1.0,-999.0,41,0.00,,,0.00,95,WeatherHawk,2013-09-10 12:39:00,
2013-09-10 08:44:00,75.1,49.7,30.36,SW,236,0.0,-999.0,41,0.00,,,0.00,105,WeatherHawk,2013-09-10 12:44:00,
2013-09-10 08:49:00,75.4,48.7,30.36,South,186,0.0,-999.0,39,0.00,,,0.00,104,WeatherHawk,2013-09-10 12:49:00,
2013-09-10 08:54:00,76.1,49.4,30.36,SW,235,0.0,-999.0,39,0.00,,,0.00,100,WeatherHawk,2013-09-10 12:54:00,
2013-09-10 08:59:00,75.3,47.9,30.36,SE,142,1.0,-999.0,38,0.00,,,0.00,105,WeatherHawk,2013-09-10 12:59:00,
2013-09-10 09:04:00,75.8,48.3,30.35,SSE,168,0.0,-999.0,38,0.00,,,0.00,130,WeatherHawk,2013-09-10 13:04:00,
2013-09-10 09:09:00,76.4,47.5,30.35,SSE,163,0.0,-999.0,36,0.00,,,0.00,145,WeatherHawk,2013-09-10 13:09:00,
2013-09-10 09:14:00,76.4,46.7,30.37,SSW,194,2.0,-999.0,35,0.00,,,0.00,125,WeatherHawk,2013-09-10 13:14:00,
2013-09-10 09:19:00,76.7,46.2,30.35,SSE,162,2.0,-999.0,34,0.00,,,0.00,97,WeatherHawk,2013-09-10 13:19:00,
2013-09-10 09:24:00,76.5,45.3,30.35,SSE,158,7.0,-999.0,33,0.00,,,0.00,91,WeatherHawk,2013-09-10 13:24:00,
2013-09-10 09:29:00,77.0,45.7,30.35,South,188,4.0,-999.0,33,0.00,,,0.00,91,WeatherHawk,2013-09-10 13:29:00,
2013-09-10 09:34:00,77.0,44.9,30.36,SSE,159,2.0,-999.0,32,0.00,,,0.00,88,WeatherHawk,2013-09-10 13:34:00,
2013-09-10 09:39:00,77.1,44.9,30.35,SSE,163,4.0,-999.0,32,0.00,,,0.00,106,WeatherHawk,2013-09-10 13:39:00,
2013-09-10 09:44:00,77.3,45.1,30.36,South,174,0.0,-999.0,32,0.00,,,0.00,119,WeatherHawk,2013-09-10 13:44:00,
2013-09-10 09:49:00,77.1,44.1,30.36,South,174,3.0,-999.0,31,0.00,,,0.00,134,WeatherHawk,2013-09-10 13:49:00,
2013-09-10 09:54:00,77.9,44.8,30.36,NW,310,2.0,-999.0,31,0.00,,,0.00,138,WeatherHawk,2013-09-10 13:54:00,
2013-09-10 09:59:00,77.7,43.8,30.37,South,177,5.0,-999.0,30,0.00,,,0.00,139,WeatherHawk,2013-09-10 13:59:00,
2013-09-10 10:04:00,78.0,44.1,30.36,SSE,151,3.0,-999.0,30,0.00,,,0.00,125,WeatherHawk,2013-09-10 14:04:00,
2013-09-10 10:09:00,77.9,43.1,30.35,SSW,198,4.0,-999.0,29,0.00,,,0.00,114,WeatherHawk,2013-09-10 14:09:00,
2013-09-10 10:14:00,77.9,43.1,30.37,South,171,6.0,-999.0,29,0.00,,,0.00,120,WeatherHawk,2013-09-10 14:14:00,
2013-09-10 10:19:00,77.9,44.0,30.36,SE,132,5.0,-999.0,30,0.00,,,0.00,137,WeatherHawk,2013-09-10 14:19:00,
2013-09-10 10:24:00,78.6,43.6,30.37,South,184,4.0,-999.0,29,0.00,,,0.00,193,WeatherHawk,2013-09-10 14:24:00,
2013-09-10 10:29:00,79.0,43.1,30.36,SSE,159,3.0,-999.0,28,0.00,,,0.00,248,WeatherHawk,2013-09-10 14:29:00,
2013-09-10 10:34:00,79.0,42.1,30.36,SSW,198,4.0,-999.0,27,0.00,,,0.00,215,WeatherHawk,2013-09-10 14:34:00,
2013-09-10 10:39:00,79.6,41.7,30.35,SSE,147,4.0,-999.0,26,0.00,,,0.00,303,WeatherHawk,2013-09-10 14:39:00,
2013-09-10 10:44:00,79.4,41.5,30.36,South,179,6.0,-999.0,26,0.00,,,0.00,178,WeatherHawk,2013-09-10 14:44:00,
2013-09-10 10:49:00,79.6,40.6,30.35,South,188,5.0,-999.0,25,0.00,,,0.00,224,WeatherHawk,2013-09-10 14:49:00,
2013-09-10 10:54:00,79.8,40.9,30.36,SSE,152,5.0,-999.0,25,0.00,,,0.00,418,WeatherHawk,2013-09-10 14:54:00,
2013-09-10 10:59:00,81.0,39.7,30.36,SSE,167,3.0,-999.0,23,0.00,,,0.00,503,WeatherHawk,2013-09-10 14:59:00,
2013-09-10 11:04:00,81.3,37.6,30.35,SSE,158,2.0,-999.0,21,0.00,,,0.00,322,WeatherHawk,2013-09-10 15:04:00,
2013-09-10 11:09:00,82.2,38.4,30.35,SSE,159,3.0,-999.0,21,0.00,,,0.00,426,WeatherHawk,2013-09-10 15:09:00,
2013-09-10 11:14:00,81.6,37.9,30.35,South,177,7.0,-999.0,21,0.00,,,0.00,468,WeatherHawk,2013-09-10 15:14:00,
2013-09-10 11:19:00,82.1,38.3,30.36,South,171,4.0,-999.0,21,0.00,,,0.00,382,WeatherHawk,2013-09-10 15:19:00,
2013-09-10 11:24:00,82.7,37.5,30.36,South,174,5.0,-999.0,20,0.00,,,0.00,574,WeatherHawk,2013-09-10 15:24:00,
2013-09-10 11:29:00,82.4,34.6,30.35,SSE,147,8.0,-999.0,18,0.00,,,0.00,584,WeatherHawk,2013-09-10 15:29:00,
2013-09-10 11:34:00,84.7,36.5,30.34,WSW,256,4.0,-999.0,18,0.00,,,0.00,587,WeatherHawk,2013-09-10 15:34:00,
2013-09-10 11:39:00,84.7,35.0,30.34,NNE,17,2.0,-999.0,17,0.00,,,0.00,596,WeatherHawk,2013-09-10 15:39:00,
2013-09-10 11:44:00,84.4,33.3,30.35,SSE,165,5.0,-999.0,16,0.00,,,0.00,602,WeatherHawk,2013-09-10 15:44:00,
2013-09-10 11:54:00,83.4,32.5,30.33,SSE,162,6.0,-999.0,16,0.00,,,0.00,617,WeatherHawk,2013-09-10 15:54:00,
2013-09-10 11:59:00,86.4,33.3,30.34,NW,323,3.0,-999.0,15,0.00,,,0.00,628,WeatherHawk,2013-09-10 15:59:00,
2013-09-10 12:04:00,83.7,32.7,30.33,SSE,155,8.0,-999.0,16,0.00,,,0.00,631,WeatherHawk,2013-09-10 16:04:00,
2013-09-10 12:09:00,84.3,31.6,30.32,WNW,290,2.0,-999.0,15,0.00,,,0.00,642,WeatherHawk,2013-09-10 16:09:00,
2013-09-10 12:14:00,84.6,30.1,30.32,SSE,161,7.0,-999.0,14,0.00,,,0.00,649,WeatherHawk,2013-09-10 16:14:00,
2013-09-10 12:19:00,86.6,31.7,30.33,WSW,256,1.0,-999.0,14,0.00,,,0.00,656,WeatherHawk,2013-09-10 16:19:00,
2013-09-10 12:24:00,83.7,29.5,30.32,South,176,6.0,-999.0,14,0.00,,,0.00,664,WeatherHawk,2013-09-10 16:24:00,
2013-09-10 12:29:00,85.4,30.7,30.31,South,171,3.0,-999.0,14,0.00,,,0.00,665,WeatherHawk,2013-09-10 16:29:00,
2013-09-10 12:34:00,85.3,28.8,30.32,ESE,118,2.0,-999.0,13,0.00,,,0.00,671,WeatherHawk,2013-09-10 16:34:00,
2013-09-10 12:39:00,87.0,30.2,30.32,SW,220,4.0,-999.0,13,0.00,,,0.00,676,WeatherHawk,2013-09-10 16:39:00,
2013-09-10 12:44:00,87.1,28.4,30.32,WSW,251,2.0,-999.0,12,0.00,,,0.00,681,WeatherHawk,2013-09-10 16:44:00,
2013-09-10 12:49:00,85.9,25.3,30.32,SSE,168,4.0,-999.0,11,0.00,,,0.00,681,WeatherHawk,2013-09-10 16:49:00,
2013-09-10 12:54:00,87.5,26.5,30.32,WSW,251,3.0,-999.0,11,0.00,,,0.00,688,WeatherHawk,2013-09-10 16:54:00,
2013-09-10 12:59:00,86.2,29.6,30.31,South,187,5.0,-999.0,13,0.00,,,0.00,687,WeatherHawk,2013-09-10 16:59:00,
2013-09-10 13:04:00,89.1,29.9,30.30,SW,225,0.0,-999.0,12,0.00,,,0.00,695,WeatherHawk,2013-09-10 17:04:00,
2013-09-10 13:09:00,88.3,29.2,30.31,SSW,206,5.0,-999.0,12,0.00,,,0.00,690,WeatherHawk,2013-09-10 17:09:00,
2013-09-10 13:14:00,87.2,26.3,30.32,SSE,148,3.0,-999.0,11,0.00,,,0.00,692,WeatherHawk,2013-09-10 17:14:00,
2013-09-10 13:19:00,87.8,30.8,30.32,SSE,158,4.0,-999.0,13,0.00,,,0.00,703,WeatherHawk,2013-09-10 17:19:00,
2013-09-10 13:24:00,89.4,30.1,30.32,WSW,251,1.0,-999.0,12,0.00,,,0.00,705,WeatherHawk,2013-09-10 17:24:00,
2013-09-10 13:29:00,90.6,26.6,30.30,SW,214,2.0,-999.0,10,0.00,,,0.00,697,WeatherHawk,2013-09-10 17:29:00,
2013-09-10 13:34:00,87.5,26.5,30.31,SSE,159,3.0,-999.0,11,0.00,,,0.00,707,WeatherHawk,2013-09-10 17:34:00,
2013-09-10 13:39:00,89.5,25.7,30.29,ESE,120,1.0,-999.0,10,0.00,,,0.00,711,WeatherHawk,2013-09-10 17:39:00,
2013-09-10 13:44:00,87.7,28.8,30.31,SSE,168,8.0,-999.0,12,0.00,,,0.00,714,WeatherHawk,2013-09-10 17:44:00,
2013-09-10 13:49:00,89.5,30.1,30.30,SSW,192,2.0,-999.0,12,0.00,,,0.00,683,WeatherHawk,2013-09-10 17:49:00,
2013-09-10 13:54:00,91.2,27.0,30.30,SSE,152,1.0,-999.0,10,0.00,,,0.00,706,WeatherHawk,2013-09-10 17:54:00,
2013-09-10 13:59:00,86.9,26.1,30.29,SSE,158,4.0,-999.0,11,0.00,,,0.00,701,WeatherHawk,2013-09-10 17:59:00,
2013-09-10 14:04:00,89.5,28.1,30.29,SE,144,4.0,-999.0,11,0.00,,,0.00,707,WeatherHawk,2013-09-10 18:04:00,
2013-09-10 14:09:00,87.8,24.4,30.29,SSE,158,8.0,-999.0,10,0.00,,,0.00,700,WeatherHawk,2013-09-10 18:09:00,
2013-09-10 14:14:00,89.5,25.8,30.29,SSE,165,2.0,-999.0,10,0.00,,,0.00,704,WeatherHawk,2013-09-10 18:14:00,
2013-09-10 14:19:00,90.8,29.0,30.30,West,280,2.0,-999.0,11,0.00,,,0.00,697,WeatherHawk,2013-09-10 18:19:00,
2013-09-10 14:24:00,89.2,25.5,30.30,SSE,148,4.0,-999.0,10,0.00,,,0.00,695,WeatherHawk,2013-09-10 18:24:00,
2013-09-10 14:29:00,90.2,26.2,30.28,SSE,163,6.0,-999.0,10,0.00,,,0.00,686,WeatherHawk,2013-09-10 18:29:00,
2013-09-10 14:34:00,89.8,25.9,30.28,South,177,3.0,-999.0,10,0.00,,,0.00,675,WeatherHawk,2013-09-10 18:34:00,
2013-09-10 14:39:00,92.5,30.3,30.28,SSE,163,3.0,-999.0,11,0.00,,,0.00,673,WeatherHawk,2013-09-10 18:39:00,
2013-09-10 14:44:00,90.8,29.0,30.28,South,179,6.0,-999.0,11,0.00,,,0.00,660,WeatherHawk,2013-09-10 18:44:00,
2013-09-10 14:49:00,89.7,23.4,30.27,South,173,4.0,-999.0,9,0.00,,,0.00,668,WeatherHawk,2013-09-10 18:49:00,
2013-09-10 14:54:00,89.8,28.2,30.29,SSE,159,4.0,-999.0,11,0.00,,,0.00,655,WeatherHawk,2013-09-10 18:54:00,
2013-09-10 14:59:00,91.1,29.3,30.29,SW,224,2.0,-999.0,11,0.00,,,0.00,654,WeatherHawk,2013-09-10 18:59:00,
2013-09-10 15:04:00,93.2,26.0,30.28,SSW,208,0.0,-999.0,9,0.00,,,0.00,658,WeatherHawk,2013-09-10 19:04:00,
2013-09-10 15:09:00,87.5,26.5,30.28,SSE,167,5.0,-999.0,11,0.00,,,0.00,269,WeatherHawk,2013-09-10 19:09:00,
2013-09-10 15:14:00,90.1,23.7,30.28,SSE,155,4.0,-999.0,9,0.00,,,0.00,626,WeatherHawk,2013-09-10 19:14:00,
2013-09-10 15:19:00,88.6,27.4,30.28,SSE,151,5.0,-999.0,11,0.00,,,0.00,635,WeatherHawk,2013-09-10 19:19:00,
2013-09-10 15:24:00,94.0,23.7,30.27,SW,224,2.0,-999.0,8,0.00,,,0.00,636,WeatherHawk,2013-09-10 19:24:00,
2013-09-10 15:29:00,90.7,21.3,30.28,SE,137,5.0,-999.0,8,0.00,,,0.00,614,WeatherHawk,2013-09-10 19:29:00,
2013-09-10 15:34:00,89.2,23.0,30.27,South,177,10.0,-999.0,9,0.00,,,0.00,530,WeatherHawk,2013-09-10 19:34:00,
2013-09-10 15:39:00,88.5,27.3,30.26,South,173,8.0,-999.0,11,0.00,,,0.00,570,WeatherHawk,2013-09-10 19:39:00,
2013-09-10 15:44:00,92.2,27.7,30.27,ESE,120,4.0,-999.0,10,0.00,,,0.00,311,WeatherHawk,2013-09-10 19:44:00,
2013-09-10 15:49:00,89.7,25.9,30.27,WNW,301,2.0,-999.0,10,0.00,,,0.00,617,WeatherHawk,2013-09-10 19:49:00,
2013-09-10 15:54:00,91.0,24.4,30.28,SSW,196,5.0,-999.0,9,0.00,,,0.00,596,WeatherHawk,2013-09-10 19:54:00,
2013-09-10 15:59:00,90.4,26.4,30.27,South,176,3.0,-999.0,10,0.00,,,0.00,548,WeatherHawk,2013-09-10 19:59:00,
2013-09-10 16:04:00,90.4,28.7,30.27,SSE,155,8.0,-999.0,11,0.00,,,0.00,547,WeatherHawk,2013-09-10 20:04:00,
2013-09-10 16:09:00,88.6,25.1,30.26,SSE,149,7.0,-999.0,10,0.00,,,0.00,550,WeatherHawk,2013-09-10 20:09:00,
2013-09-10 16:14:00,90.6,31.0,30.26,SSE,163,6.0,-999.0,12,0.00,,,0.00,545,WeatherHawk,2013-09-10 20:14:00,
2013-09-10 16:19:00,90.4,26.4,30.26,SSE,167,4.0,-999.0,10,0.00,,,0.00,543,WeatherHawk,2013-09-10 20:19:00,
2013-09-10 16:24:00,89.9,28.3,30.24,ESE,119,4.0,-999.0,11,0.00,,,0.00,517,WeatherHawk,2013-09-10 20:24:00,
2013-09-10 16:29:00,89.8,28.3,30.26,SSE,157,8.0,-999.0,11,0.00,,,0.00,525,WeatherHawk,2013-09-10 20:29:00,
2013-09-10 16:34:00,89.0,27.6,30.25,SE,143,6.0,-999.0,11,0.00,,,0.00,560,WeatherHawk,2013-09-10 20:34:00,
2013-09-10 16:39:00,90.0,28.5,30.26,South,170,4.0,-999.0,11,0.00,,,0.00,506,WeatherHawk,2013-09-10 20:39:00,
2013-09-10 16:44:00,91.5,31.7,30.24,SSE,155,4.0,-999.0,12,0.00,,,0.00,486,WeatherHawk,2013-09-10 20:44:00,
2013-09-10 16:49:00,88.8,25.2,30.24,SSE,168,6.0,-999.0,10,0.00,,,0.00,473,WeatherHawk,2013-09-10 20:49:00,
2013-09-10 16:54:00,89.4,30.1,30.25,SSE,163,6.0,-999.0,12,0.00,,,0.00,467,WeatherHawk,2013-09-10 20:54:00,
2013-09-10 16:59:00,90.8,31.2,30.25,South,180,6.0,-999.0,12,0.00,,,0.00,194,WeatherHawk,2013-09-10 20:59:00,
2013-09-10 17:04:00,90.7,29.0,30.24,WSW,258,2.0,-999.0,11,0.00,,,0.00,492,WeatherHawk,2013-09-10 21:04:00,
2013-09-10 17:09:00,88.7,29.6,30.25,SSE,152,8.0,-999.0,12,0.00,,,0.00,240,WeatherHawk,2013-09-10 21:09:00,
2013-09-10 17:14:00,89.5,30.2,30.26,SSE,162,2.0,-999.0,12,0.00,,,0.00,210,WeatherHawk,2013-09-10 21:14:00,
2013-09-10 17:19:00,89.4,30.1,30.26,South,180,5.0,-999.0,12,0.00,,,0.00,418,WeatherHawk,2013-09-10 21:19:00,
2013-09-10 17:24:00,88.7,31.6,30.27,SSE,161,4.0,-999.0,13,0.00,,,0.00,379,WeatherHawk,2013-09-10 21:24:00,
2013-09-10 17:29:00,88.9,31.7,30.27,SSE,149,5.0,-999.0,13,0.00,,,0.00,360,WeatherHawk,2013-09-10 21:29:00,
2013-09-10 17:34:00,88.2,33.0,30.24,South,172,4.0,-999.0,14,0.00,,,0.00,136,WeatherHawk,2013-09-10 21:34:00,
2013-09-10 17:39:00,88.0,31.0,30.25,South,174,4.0,-999.0,13,0.00,,,0.00,314,WeatherHawk,2013-09-10 21:39:00,
2013-09-10 17:44:00,88.3,33.0,30.25,South,173,4.0,-999.0,14,0.00,,,0.00,185,WeatherHawk,2013-09-10 21:44:00,
2013-09-10 17:49:00,89.0,33.6,30.25,South,185,4.0,-999.0,14,0.00,,,0.00,221,WeatherHawk,2013-09-10 21:49:00,
2013-09-10 17:54:00,90.2,34.6,30.26,SSW,211,1.0,-999.0,14,0.00,,,0.00,216,WeatherHawk,2013-09-10 21:54:00,
2013-09-10 17:59:00,88.2,32.9,30.26,SSE,158,6.0,-999.0,14,0.00,,,0.00,215,WeatherHawk,2013-09-10 21:59:00,
2013-09-10 18:04:00,88.3,34.8,30.25,SSE,168,1.0,-999.0,15,0.00,,,0.00,165,WeatherHawk,2013-09-10 22:04:00,
2013-09-10 18:09:00,87.7,34.3,30.26,SSW,193,3.0,-999.0,15,0.00,,,0.00,179,WeatherHawk,2013-09-10 22:09:00,
2013-09-10 18:14:00,87.9,34.5,30.27,SSE,160,1.0,-999.0,15,0.00,,,0.00,156,WeatherHawk,2013-09-10 22:14:00,
2013-09-10 18:19:00,87.4,34.1,30.27,South,179,4.0,-999.0,15,0.00,,,0.00,161,WeatherHawk,2013-09-10 22:19:00,
2013-09-10 18:24:00,87.8,34.4,30.26,South,174,4.0,-999.0,15,0.00,,,0.00,148,WeatherHawk,2013-09-10 22:24:00,
2013-09-10 18:29:00,87.2,35.5,30.27,SSE,163,0.0,-999.0,16,0.00,,,0.00,145,WeatherHawk,2013-09-10 22:29:00,
2013-09-10 18:34:00,87.7,35.9,30.26,WSW,248,3.0,-999.0,16,0.00,,,0.00,135,WeatherHawk,2013-09-10 22:34:00,
2013-09-10 18:39:00,88.3,36.4,30.27,WSW,252,0.0,-999.0,16,0.00,,,0.00,117,WeatherHawk,2013-09-10 22:39:00,
2013-09-10 18:44:00,87.9,37.6,30.27,South,169,3.0,-999.0,17,0.00,,,0.00,119,WeatherHawk,2013-09-10 22:44:00,
2013-09-10 18:49:00,87.5,37.3,30.27,SSW,192,3.0,-999.0,17,0.00,,,0.00,114,WeatherHawk,2013-09-10 22:49:00,
2013-09-10 18:54:00,87.2,37.0,30.28,SSE,168,2.0,-999.0,17,0.00,,,0.00,97,WeatherHawk,2013-09-10 22:54:00,
2013-09-10 18:59:00,87.1,37.0,30.28,SW,236,1.0,-999.0,17,0.00,,,0.00,86,WeatherHawk,2013-09-10 22:59:00,
2013-09-10 19:04:00,87.4,37.2,30.29,SSE,165,3.0,-999.0,17,0.00,,,0.00,76,WeatherHawk,2013-09-10 23:04:00,
2013-09-10 19:09:00,86.7,38.1,30.27,SW,234,0.0,-999.0,18,0.00,,,0.00,66,WeatherHawk,2013-09-10 23:09:00,
2013-09-10 19:14:00,86.1,39.0,30.29,SSW,201,2.0,-999.0,19,0.00,,,0.00,56,WeatherHawk,2013-09-10 23:14:00,
2013-09-10 19:19:00,85.6,41.2,30.28,South,172,0.0,-999.0,21,0.00,,,0.00,29,WeatherHawk,2013-09-10 23:19:00,
2013-09-10 19:24:00,81.9,43.6,30.29,NE,43,0.0,-999.0,26,0.00,,,0.00,15,WeatherHawk,2013-09-10 23:24:00,
2013-09-10 19:29:00,81.4,47.0,30.28,SSW,209,0.0,-999.0,30,0.00,,,0.00,8,WeatherHawk,2013-09-10 23:29:00,
2013-09-10 19:34:00,80.9,48.2,30.29,SSW,207,0.0,-999.0,32,0.00,,,0.00,6,WeatherHawk,2013-09-10 23:34:00,
2013-09-10 19:39:00,80.3,48.5,30.29,East,87,0.0,-999.0,33,0.00,,,0.00,5,WeatherHawk,2013-09-10 23:39:00,
2013-09-10 19:44:00,79.4,50.1,30.31,SSW,213,0.0,-999.0,36,0.00,,,0.00,2,WeatherHawk,2013-09-10 23:44:00,
2013-09-10 19:49:00,79.2,51.3,30.31,SSW,194,0.0,-999.0,38,0.00,,,0.00,0,WeatherHawk,2013-09-10 23:49:00,
2013-09-10 19:54:00,78.8,51.7,30.31,SE,129,0.0,-999.0,39,0.00,,,0.00,2,WeatherHawk,2013-09-10 23:54:00,
2013-09-10 19:59:00,79.0,52.6,30.30,SW,215,0.0,-999.0,40,0.00,,,0.00,1,WeatherHawk,2013-09-10 23:59:00,
2013-09-10 20:04:00,78.1,53.1,30.31,NNW,333,0.0,-999.0,42,0.00,,,0.00,0,WeatherHawk,2013-09-11 00:04:00,
2013-09-10 20:09:00,77.9,54.2,30.31,WSW,244,0.0,-999.0,44,0.00,,,0.00,0,WeatherHawk,2013-09-11 00:09:00,
2013-09-10 20:14:00,77.5,55.1,30.31,WNW,289,0.0,-999.0,46,0.00,,,0.00,1,WeatherHawk,2013-09-11 00:14:00,
2013-09-10 20:19:00,77.3,55.5,30.32,NW,317,0.0,-999.0,47,0.00,,,0.00,0,WeatherHawk,2013-09-11 00:19:00,
2013-09-10 20:24:00,76.9,55.2,30.32,SSW,207,0.0,-999.0,47,0.00,,,0.00,1,WeatherHawk,2013-09-11 00:24:00,
2013-09-10 20:29:00,77.0,56.3,30.32,SSW,207,0.0,-999.0,49,0.00,,,0.00,0,WeatherHawk,2013-09-11 00:29:00,
2013-09-10 20:34:00,77.0,56.9,30.32,SSW,203,0.0,-999.0,50,0.00,,,0.00,0,WeatherHawk,2013-09-11 00:34:00,
2013-09-10 20:39:00,76.5,57.0,30.32,North,0,0.0,-999.0,51,0.00,,,0.00,0,WeatherHawk,2013-09-11 00:39:00,
2013-09-10 20:44:00,76.2,57.2,30.33,WSW,252,0.0,-999.0,52,0.00,,,0.00,0,WeatherHawk,2013-09-11 00:44:00,
2013-09-10 20:49:00,76.2,57.8,30.33,NE,35,0.0,-999.0,53,0.00,,,0.00,0,WeatherHawk,2013-09-11 00:49:00,
2013-09-10 20:54:00,75.7,57.4,30.33,ESE,108,0.0,-999.0,53,0.00,,,0.00,1,WeatherHawk,2013-09-11 00:54:00,
2013-09-10 20:59:00,75.8,57.9,30.33,ENE,60,0.0,-999.0,54,0.00,,,0.00,0,WeatherHawk,2013-09-11 00:59:00,
2013-09-10 21:04:00,75.7,57.8,30.34,North,349,0.0,-999.0,54,0.00,,,0.00,1,WeatherHawk,2013-09-11 01:04:00,
2013-09-10 21:09:00,75.3,58.5,30.34,NW,312,0.0,-999.0,56,0.00,,,0.00,0,WeatherHawk,2013-09-11 01:09:00,
2013-09-10 21:14:00,75.2,58.4,30.33,ESE,104,0.0,-999.0,56,0.00,,,0.00,0,WeatherHawk,2013-09-11 01:14:00,
2013-09-10 21:19:00,75.1,58.8,30.34,WNW,301,0.0,-999.0,57,0.00,,,0.00,1,WeatherHawk,2013-09-11 01:19:00,
2013-09-10 21:24:00,75.1,58.8,30.34,WNW,292,0.0,-999.0,57,0.00,,,0.00,0,WeatherHawk,2013-09-11 01:24:00,
2013-09-10 21:29:00,75.0,59.2,30.34,West,271,0.0,-999.0,58,0.00,,,0.00,0,WeatherHawk,2013-09-11 01:29:00,
2013-09-10 21:34:00,74.9,59.1,30.34,WSW,255,0.0,-999.0,58,0.00,,,0.00,0,WeatherHawk,2013-09-11 01:34:00,
2013-09-10 21:39:00,74.9,59.6,30.35,WSW,255,0.0,-999.0,59,0.00,,,0.00,0,WeatherHawk,2013-09-11 01:39:00,
2013-09-10 21:44:00,74.6,59.3,30.35,SSE,147,0.0,-999.0,59,0.00,,,0.00,0,WeatherHawk,2013-09-11 01:44:00,
2013-09-10 21:49:00,74.8,60.0,30.35,SSE,151,0.0,-999.0,60,0.00,,,0.00,0,WeatherHawk,2013-09-11 01:49:00,
2013-09-10 21:54:00,74.5,59.7,30.35,SW,218,0.0,-999.0,60,0.00,,,0.00,0,WeatherHawk,2013-09-11 01:54:00,
2013-09-10 21:59:00,74.5,59.7,30.35,West,273,0.0,-999.0,60,0.00,,,0.00,0,WeatherHawk,2013-09-11 01:59:00,
2013-09-10 22:04:00,74.3,59.5,30.35,West,271,0.0,-999.0,60,0.00,,,0.00,0,WeatherHawk,2013-09-11 02:04:00,
2013-09-10 22:09:00,74.6,60.2,30.35,SSW,208,0.0,-999.0,61,0.00,,,0.00,0,WeatherHawk,2013-09-11 02:09:00,
2013-09-10 22:14:00,74.2,59.9,30.34,SSW,211,0.0,-999.0,61,0.00,,,0.00,1,WeatherHawk,2013-09-11 02:14:00,
2013-09-10 22:19:00,74.3,60.4,30.34,SW,229,0.0,-999.0,62,0.00,,,0.00,0,WeatherHawk,2013-09-11 02:19:00,
2013-09-10 22:24:00,74.1,60.2,30.34,SW,216,0.0,-999.0,62,0.00,,,0.00,1,WeatherHawk,2013-09-11 02:24:00,
2013-09-10 22:29:00,74.1,60.7,30.34,SW,216,0.0,-999.0,63,0.00,,,0.00,0,WeatherHawk,2013-09-11 02:29:00,
2013-09-10 22:34:00,73.8,60.9,30.34,SW,216,0.0,-999.0,64,0.00,,,0.00,0,WeatherHawk,2013-09-11 02:34:00,
2013-09-10 22:39:00,73.5,60.5,30.35,SW,216,0.0,-999.0,64,0.00,,,0.00,0,WeatherHawk,2013-09-11 02:39:00,
2013-09-10 22:44:00,73.5,61.0,30.35,SE,135,0.0,-999.0,65,0.00,,,0.00,0,WeatherHawk,2013-09-11 02:44:00,
2013-09-10 22:49:00,73.3,61.3,30.33,SE,135,0.0,-999.0,66,0.00,,,0.00,0,WeatherHawk,2013-09-11 02:49:00,
2013-09-10 22:54:00,73.3,61.6,30.34,ENE,68,0.0,-999.0,67,0.00,,,0.00,1,WeatherHawk,2013-09-11 02:54:00,
2013-09-10 22:59:00,73.3,61.7,30.35,ESE,119,0.0,-999.0,67,0.00,,,0.00,1,WeatherHawk,2013-09-11 02:59:00,
2013-09-10 23:04:00,73.2,61.6,30.35,ESE,119,0.0,-999.0,67,0.00,,,0.00,1,WeatherHawk,2013-09-11 03:04:00,
2013-09-10 23:09:00,73.3,62.0,30.35,ESE,119,0.0,-999.0,68,0.00,,,0.00,0,WeatherHawk,2013-09-11 03:09:00,
2013-09-10 23:14:00,73.2,62.0,30.35,ESE,119,0.0,-999.0,68,0.00,,,0.00,0,WeatherHawk,2013-09-11 03:14:00,
2013-09-10 23:19:00,72.9,61.7,30.35,ESE,120,0.0,-999.0,68,0.00,,,0.00,0,WeatherHawk,2013-09-11 03:19:00,
2013-09-10 23:25:00,72.9,61.7,30.36,ESE,120,0.0,-999.0,68,0.00,,,0.00,0,WeatherHawk,2013-09-11 03:25:00,
2013-09-10 23:34:00,72.9,62.1,30.36,South,186,0.0,-999.0,69,0.00,,,0.00,0,WeatherHawk,2013-09-11 03:34:00,
2013-09-10 23:39:00,72.8,62.4,30.35,South,186,0.0,-999.0,70,0.00,,,0.00,0,WeatherHawk,2013-09-11 03:39:00,
2013-09-10 23:44:00,72.6,62.3,30.35,NW,322,0.0,-999.0,70,0.00,,,0.00,0,WeatherHawk,2013-09-11 03:44:00,
2013-09-10 23:49:00,72.7,62.3,30.35,NW,322,0.0,-999.0,70,0.00,,,0.00,0,WeatherHawk,2013-09-11 03:49:00,
2013-09-10 23:54:00,72.7,62.7,30.36,NW,321,0.0,-999.0,71,0.00,,,0.00,0,WeatherHawk,2013-09-11 03:54:00,
2013-09-10 23:59:00,72.8,62.9,30.35,NW,321,0.0,-999.0,71,0.00,,,0.00,0,WeatherHawk,2013-09-11 03:59:00,